This demonstration page uses our WeatherBlox Daily Observations layout. Learn more.

Left ArrowRight Arrow

41.12389, -100.76542

Hourly Observations for September 21, 2016

Temp ( °F °C ) Dew Point ( °F °C ) Humidity (%) Winds ( mph kmh ) Pressure ( in mb ) Visibility ( mi km ) Precip ( " mm )
12:53 am 00:53 Clear 71 21.7 56 13.3 59 59 ESE 8 13 29.83 1010 10 16 0.00 0.00
1:53 am 01:53 Clear 72 22.2 55 12.8 55 55 ESE 9 15 29.82 1010 10 16 0.00 0.00
2:53 am 02:53 Clear 71 21.7 55 12.8 57 57 SE 8 13 29.80 1009 10 16 0.00 0.00
3:53 am 03:53 Clear 67 19.4 55 12.8 66 66 NE 6 9 29.81 1010 10 16 0.00 0.00
4:53 am 04:53 Clear 66 18.9 56 13.3 70 70 ENE 9 15 29.80 1009 10 16 0.00 0.00
5:53 am 05:53 Clear 64 17.8 56 13.3 75 75 SE 6 9 29.80 1009 10 16 0.00 0.00
6:53 am 06:53 Clear 63 17.2 57 13.9 81 81 E 6 9 29.81 1010 10 16 0.00 0.00
7:53 am 07:53 Sunny 64 17.8 57 13.9 78 78 S 6 9 29.83 1010 10 16 0.00 0.00
8:53 am 08:53 Sunny 68 20 59 15 73 73 Calm 29.83 1010 10 16 0.00 0.00
9:53 am 09:53 Sunny 70 21.1 60 15.6 71 71 SSW 5 7 29.83 1010 10 16 0.00 0.00
10:53 am 10:53 Sunny 72 22.2 57 13.9 59 59 WNW 10 17 29.84 1011 10 16 0.00 0.00
11:53 am 11:53 Sunny 75 23.9 57 13.9 54 54 W 6 9 29.85 1011 10 16 0.00 0.00
12:53 pm 12:53 Sunny 80 26.7 56 13.3 44 44 WNW 8 13 29.83 1010 10 16 0.00 0.00
1:53 pm 13:53 Sunny 81 27.2 56 13.3 42 42 Calm 29.84 1011 10 16 0.00 0.00
2:53 pm 14:53 Sunny 82 27.8 57 13.9 42 42 Calm 29.82 1010 10 16 0.00 0.00
3:53 pm 15:53 Sunny 83 28.3 56 13.3 40 40 Calm 29.81 1010 10 16 0.00 0.00
4:53 pm 16:53 Sunny 82 27.8 57 13.9 42 42 E 5 7 29.81 1009 9 14 0.00 0.00
5:53 pm 17:53 Sunny 85 29.4 58 14.4 40 40 ENE 6 9 29.81 1009 10 16 0.00 0.00
6:53 pm 18:53 Sunny 80 26.7 56 13.3 44 44 NE 9 15 29.81 1010 10 16 0.00 0.00
7:53 pm 19:53 Clear 76 24.4 55 12.8 48 48 NE 12 19 29.82 1010 10 16 0.00 0.00
8:53 pm 20:53 Clear 74 23.3 57 13.9 56 56 NE 12 19 29.82 1010 10 16 0.00 0.00
9:53 pm 21:53 Clear 71 21.7 60 15.6 68 68 NNE 15 24 29.83 1010 10 16 0.00 0.00
10:53 pm 22:53 Clear 67 19.4 58 14.4 73 73 NNE 17 28 29.83 1010 10 16 0.00 0.00
11:53 pm 23:53 Clear 65 18.3 58 14.4 78 78 NNE 14 22 29.84 1011 10 16 0.00 0.00

Powered by AerisWeather